Dewpoint
34 34 34 32 31 32 32 33 34 36 36 35 35 35 36 37 38 39 41 42 42 43 43 43 43 45 44 45 44 46 49 51 54 61 62 63 64 64 64 64 64 64 64
33 33 32 31 31 30 32 32 32 34 35 34 35 35 36 37 38 39 40 42 42 42 42 43 43 44 45 45 45 45 44 49 52 56 59 57 60 62 63 63 63 63 63
32 32 30 30 30 29 31 31 32 33 34 35 34 34 34 35 35 37 38 39 41 42 42 42 42 43 44 46 46 46 45 44 49 52 56 55 55 58 61 62 62 62 62
32 32 29 28 29 30 31 31 32 32 32 34 34 34 33 32 34 36 37 38 40 41 41 41 41 43 43 45 46 45 46 46 45 50 53 59 58 57 56 60 61 62 62
32 31 29 28 28 30 30 31 31 31 32 33 34 33 33 34 35 35 37 38 38 39 40 41 41 41 42 43 45 46 46 47 46 46 49 53 59 59 58 54 59 61 61
32 32 30 29 28 30 30 30 30 30 32 33 33 34 34 34 34 35 35 35 36 37 39 39 40 40 41 42 43 45 45 46 47 46 48 50 52 55 58 57 57 57 59
33 31 28 28 28 28 29 29 30 29 30 32 33 33 34 35 34 34 33 34 35 36 38 38 39 39 40 42 43 43 44 45 46 47 48 48 52 52 56 58 56 57 59
32 30 28 29 28 28 29 30 30 29 30 31 32 32 34 32 33 33 33 33 34 35 36 37 37 39 39 39 41 42 43 45 47 48 49 48 51 54 52 56 57 56 57
31 30 29 29 29 28 29 31 30 29 29 31 31 32 33 33 34 34 34 33 34 33 36 37 37 38 39 39 40 40 43 45 46 47 49 50 51 53 54 54 59 57 53
32 30 29 29 28 28 28 31 30 29 30 31 31 31 32 32 34 34 33 34 33 34 35 35 37 37 38 38 38 39 41 42 42 45 50 51 51 53 54 55 57 56 57
31 30 30 30 28 28 28 29 30 29 29 30 31 32 33 32 32 33 32 32 33 33 33 34 35 35 36 37 37 37 37 39 39 40 42 51 51 53 54 56 56 55 57
31 29 29 28 28 27 27 27 28 28 29 29 30 32 32 31 31 32 31 32 31 32 33 33 34 34 34 35 35 34 35 35 35 37 38 42 51 53 54 55 55 55 58
30 29 31 32 29 28 27 26 26 27 28 28 29 30 30 30 29 31 31 30 30 31 32 32 32 33 34 33 34 34 33 34 34 35 37 40 47 52 54 56 56 55 54
29 28 31 31 29 28 27 26 26 27 27 27 28 29 28 29 29 30 30 30 30 30 30 31 31 32 32 32 33 33 33 34 34 36 37 38 42 53 54 55 54 54 54
27 27 29 30 28 28 28 26 26 26 27 26 27 28 28 29 29 29 30 29 28 28 28 29 30 31 31 31 33 32 33 33 34 35 37 39 41 45 50 53 55 54 54
26 27 26 26 28 26 26 24 25 26 27 26 27 26 27 26 27 28 28 28 26 26 27 28 29 32 31 31 32 32 32 33 33 34 38 40 41 43 43 43 44 52 53
26 26 27 26 24 24 24 24 24 25 25 26 26 25 26 26 27 26 26 25 25 26 26 27 29 30 31 30 30 31 31 32 33 33 35 37 41 42 51 46 42 43 43
26 28 23 21 21 22 23 23 23 24 24 24 24 26 26 26 26 25 24 24 25 26 26 26 27 29 28 28 28 31 31 32 32 33 34 35 36 41 42 52 53 52 54
28 23 21 19 19 20 21 21 21 23 23 23 24 25 25 26 26 24 24 24 24 25 25 24 25 26 26 26 28 30 31 31 30 31 33 33 33 34 34 37 52 52 53
22 21 19 18 19 19 21 20 21 21 22 23 24 25 25 24 23 23 23 23 23 22 23 23 25 25 25 26 27 29 29 30 28 31 32 32 32 32 33 35 49 50 49
19 18 17 17 19 20 20 20 20 20 22 23 24 23 23 23 23 24 21 20 21 23 22 23 23 25 25 26 26 28 28 29 28 29 30 30 31 32 34 34 41 50 48
16 17 17 18 19 20 20 19 19 21 22 22 22 22 22 22 22 22 20 19 18 19 20 22 24 25 26 24 25 26 27 28 27 27 30 30 31 31 32 33 36 39 40
16 17 17 18 19 20 20 19 21 21 21 21 20 20 21 21 23 22 21 19 19 21 21 21 21 22 24 25 24 24 24 26 25 26 28 28 29 29 29 30 32 35 43
16 17 17 17 18 19 20 20 20 20 19 18 19 19 20 20 20 22 21 20 21 21 20 19 19 21 21 23 25 25 25 23 23 24 25 26 27 27 27 27 28 32 33
16 16 16 17 18 19 20 20 20 19 17 17 17 18 18 18 19 20 22 21 22 21 21 20 21 19 18 21 23 23 22 22 21 22 21 21 21 22 24 24 25 27 29
15 15 16 16 17 18 19 20 20 19 18 16 16 17 17 17 16 17 18 18 18 17 17 18 20 21 21 22 22 21 21 21 20 18 17 17 18 18 21 22 22 24 25
Lifted_Index
9 10 10 11 12 12 13 13 13 13 14 14 14 13 13 13 13 12 12 11 11 10 10 9 8 7 8 8 8 8 8 7 3 0 -2 -3 -4 -4 -4 -4 -4 -3 -2
10 10 10 11 12 12 13 13 13 14 14 14 14 14 13 13 13 13 12 12 11 10 10 9 8 8 7 7 8 8 8 7 5 2 -1 -2 -3 -4 -4 -4 -4 -3 -2
10 10 10 11 12 12 13 13 14 14 14 14 14 14 14 14 13 13 13 12 12 11 10 9 9 8 8 7 7 7 7 7 6 4 1 -1 -3 -3 -3 -4 -4 -4 -3
9 10 10 11 12 13 13 14 14 14 14 14 14 14 14 14 14 14 13 13 12 11 11 10 9 9 8 7 7 7 7 7 7 5 3 0 -2 -3 -3 -3 -4 -4 -4
9 9 10 12 12 13 14 14 14 14 14 14 14 14 14 14 14 14 13 13 13 12 12 11 10 9 8 8 7 7 7 7 8 7 5 3 0 -2 -3 -3 -4 -4 -4
9 9 10 12 13 13 14 14 14 14 14 14 14 14 14 14 14 14 13 13 13 13 12 11 10 9 8 8 8 7 7 7 7 8 7 5 2 -0 -2 -3 -3 -4 -4
8 9 10 12 12 13 13 14 14 14 14 14 14 14 14 14 14 14 14 14 14 14 13 12 10 9 8 8 8 8 7 7 7 8 7 6 4 2 -0 -2 -3 -4 -3
8 9 10 12 12 13 13 14 14 14 15 15 15 14 14 14 14 14 14 14 14 14 14 12 11 10 9 8 8 8 8 7 7 7 7 7 5 4 2 -0 -2 -3 -3
8 9 11 11 12 13 13 14 14 15 15 15 15 14 14 14 14 14 14 14 15 14 14 13 12 10 10 9 8 7 7 7 7 7 6 6 6 5 3 1 -1 -2 -2
8 9 10 11 12 12 13 14 14 15 15 15 15 14 14 14 14 14 14 15 15 14 14 13 12 11 10 9 8 8 7 7 6 6 5 5 5 4 3 1 0 -0 -0
8 9 10 10 11 12 13 14 14 15 15 15 15 14 14 14 14 14 15 15 15 15 14 14 13 12 11 10 9 8 7 6 6 5 5 4 3 3 2 1 1 1 1
7 8 9 10 11 12 13 14 14 15 15 15 15 14 14 14 14 14 15 15 15 15 14 14 13 13 12 11 10 9 8 7 5 5 4 3 2 1 1 0 0 1 1
6 7 8 9 11 12 13 13 14 15 15 15 15 14 14 14 14 15 15 15 15 15 15 14 13 13 12 12 11 9 8 7 6 6 4 3 1 1 0 -0 0 1 2
5 6 8 9 11 12 12 13 14 14 14 14 14 14 14 14 14 15 15 15 15 15 15 14 14 13 13 12 11 10 9 8 7 6 5 3 1 0 0 -0 0 1 1
5 6 8 9 10 11 12 13 13 14 14 14 14 13 14 14 15 15 15 16 16 16 16 15 14 14 14 13 12 11 10 8 7 6 5 3 2 1 0 0 1 1 1
5 6 7 8 9 11 12 12 12 13 13 13 13 13 14 14 14 15 15 16 16 16 16 15 15 14 14 15 14 12 11 9 8 7 5 4 2 2 1 1 1 1 1
5 6 7 8 10 11 11 12 12 13 13 13 13 13 13 14 14 15 15 16 16 16 16 16 15 15 15 16 15 13 12 10 9 8 6 5 3 2 2 2 2 2 1
5 6 8 9 10 11 12 12 12 13 13 13 13 14 14 14 14 15 15 16 16 16 16 16 16 16 17 17 16 14 12 11 10 10 9 6 4 3 3 3 3 2 2
6 7 9 10 10 11 12 12 12 12 12 13 13 14 14 14 15 15 15 16 16 16 16 17 17 17 17 18 17 16 13 12 11 12 11 9 7 5 4 3 3 3 2
7 8 9 10 10 11 11 11 11 12 12 13 14 14 15 15 15 15 15 15 15 15 15 16 17 17 17 18 18 17 15 13 12 12 12 12 10 8 5 4 3 3 3
8 8 9 9 10 11 11 10 11 11 13 13 14 14 14 14 14 14 14 13 13 13 13 13 14 15 16 17 18 18 16 15 14 13 13 13 12 10 6 4 4 4 4
8 8 9 9 10 11 11 10 11 12 13 13 13 13 13 13 12 12 12 11 11 10 10 10 11 12 14 15 16 17 17 16 15 15 14 14 14 11 7 5 4 4 4
8 8 9 9 10 11 11 11 11 12 13 12 12 11 11 12 12 12 11 11 10 10 9 9 10 11 13 14 16 16 17 17 16 16 16 16 15 13 10 6 4 3 3
8 8 9 9 10 11 11 12 12 13 13 12 12 11 11 12 12 12 12 12 12 11 11 11 11 12 13 15 16 17 17 17 17 17 16 16 16 15 13 9 6 4 4
8 9 9 10 11 12 12 13 14 14 13 13 12 12 12 12 12 13 13 14 14 14 14 14 14 14 15 16 17 17 18 18 18 17 16 16 16 15 15 13 10 8 6
9 9 10 11 11 12 13 14 15 14 14 13 13 13 13 12 13 13 13 15 15 16 16 15 15 16 16 17 17 17 18 18 18 17 16 16 16 16 15 15 13 11 9